User: anonymous   Login
Location: Cherry Springs State Park
(41.6616°N, 77.8240°W)
Time: 12:15:11
(UTC-04:00)
Language:

Cosmos 1437 - Orbit

View from above orbital plane
View from above orbital plane
View from above satellite
View from above satellite

Ground track
Ground track

The orbit data is extracted from the following two-line orbital elements,

1 13770U 83003A   15088.19335488  .00020842  00000-0  56010-3 0  9996
2 13770 081.1625 055.4360 0007928 203.0046 244.6309 15.37751534761268
Epoch (UTC): 29 March 2015 04:38:25
Eccentricity: 0.0007928
inclination: 81.1625°
perigee height: 447 km
apogee height: 458 km
right ascension of ascending node: 55.4360°
argument of perigee: 203.0046°
revolutions per day: 15.37751534
mean anomaly at epoch: 244.6309°
orbit number at epoch: 76126

The dashed part of the orbit path shows where the satellite is in the earth's shadow,  

DLR